Location: Chassagnes
(44.4047°N, 4.1657°E)
Time: 11:41:31
(UTC+00:00)

Cosmos 1980 Rocket - Pass Details

Date: 27 October 2020
Orbit: 831 x 848 km, 71.0° (Epoch: 23 November)

Event Time Altitude Azimuth Distance (km) Brightness Sun altitude
Rises 18:00:46 0° 166° (SSE) 3,378 5.2 -15.1°
Reaches altitude 10° 18:03:39 10° 152° (SSE) 2,445 4.4 -15.6°
Enters shadow 18:07:28 23° 110° (ESE) 1,704 3.2 -16.3°
